Terminal Aerodrome Forecast
Issued by NWS Twin Cities, MN

Home | Current Version | Previous Version | Graphics & Text | Print | Product List | Glossary On
Versions: 1 2 3 4 5 6 7 8 9 10 11 12 13 14 15 16 17 18 19 20 21 22 23 24 25 26 27 28 29 30 31 32
401
FTUS43 KMPX 272331
TAFMSP
TAF
KMSP 272331Z 2800/2906 32010G16KT P6SM -SHRA SCT025 OVC035
     FM280200 34008KT P6SM BKN025 OVC060
     FM281600 36012G18KT P6SM BKN025 OVC050
     FM282200 36009KT P6SM SCT050=

USA.gov is the U.S. government's official web portal to all federal, state and local government web resources and services.